[[{"header":{"parameterUnit":"m.s-1","parameterCategory":2,"la1":30.2991,"la2":30.254,"lo1":-89.0895,"lo2":-89.0444,"dy":0.0017,"dx":0.0017,"nx":28,"ny":28,"refTime":"2024-10-08T03:00:00:Z","depth":"0","parameterNumber":2,"parameterNumberName":"U-component_of_CURRENTS"},"data":[0,0,0,0,0,0,0,0,0,0,0,0,0,0,0,0,0,0,0,0,0,0,0,0,0,0,0,0,0,0,0,0,0,0,0,0,0,0,0,0,0,0,0,0,0,0,0,0,0,0,0,0,0,0,0,0,0,0,0.2649,0.2649,0,0.2669,0.2669,0.2669,0.2655,0.2655,0.2655,0.2654,0.2637,0.2636,0.2636,0,0,0,0,0,0,0,0,0,0,0,0,0,0.2595,0.2595,0.2648,0.2649,0.265,0.2669,0.2669,0.2669,0.2656,0.2655,0.2655,0.2654,0.2637,0.2637,0.2636,0,0,0,0,0,0,0,0,0,0,0,0,0,0.2614,0.2596,0.2648,0.2647,0.2648,0.2669,0.2669,0.2669,0.2656,0.2655,0.2655,0.2654,0.2637,0.2637,0.2636,0.2645,0,0,0.2636,0.2635,0,0,0,0,0,0,0,0,0.2613,0.2615,0.2647,0.2648,0.2648,0.2662,0.2644,0.266,0.2656,0.2649,0.2654,0.2654,0.2644,0.2643,0.2644,0.2644,0.2643,0.2636,0.2635,0.2635,0.2635,0,0,0,0,0,0,0,0.2611,0.2615,0.2653,0.2648,0.2648,0.2645,0.2647,0.2647,0.2646,0.265,0.265,0.2657,0.2643,0.2645,0.2644,0.2643,0.2636,0.2635,0.2635,0.2635,0.2677,0.2678,0,0,0,0,0,0,0.2616,0.2613,0.2653,0.2654,0.2632,0.2647,0.2649,0.2655,0.2647,0.2646,0.2658,0.2657,0.2645,0.2644,0.2643,0.2672,0.2635,0.2635,0.2635,0.2676,0.2677,0.2679,0,0,0,0,0,0,0.2615,0.2619,0.2652,0.2637,0.2641,0.2649,0.2656,0.2656,0.2661,0.2654,0.2652,0.2663,0.2645,0.2643,0.2653,0.267,0.2635,0.2635,0.2674,0.2676,0.2678,0.2717,0,0,0,0,0,0,0.2613,0.2619,0.2624,0.2637,0.2642,0.267,0.2657,0.2657,0.2667,0.2666,0.2658,0.2655,0.2644,0.2654,0.2653,0.2669,0.2635,0.2673,0.2675,0.2677,0.2714,0.272,0.2725,0,0,0,0,0,0.2611,0.262,0.2624,0.2629,0.265,0.2671,0.2673,0.2675,0.2668,0.2675,0.2673,0.2656,0.2668,0.2655,0.2653,0.267,0.2671,0.2674,0.2677,0.2712,0.2719,0.2725,0,0,0,0,0,0,0.2597,0.2621,0.2625,0.264,0.2658,0.267,0.2678,0.268,0.2684,0.2682,0.2669,0.2667,0.2686,0.2675,0.266,0.2691,0.2668,0.2671,0.2695,0.2701,0.2707,0.272,0.2634,0,0,0,0,0,0.2599,0.2613,0.2635,0.2648,0.2659,0.267,0.2678,0.2682,0.269,0.2691,0.2686,0.2687,0.2697,0.2696,0.2701,0.2713,0.2727,0.2725,0.2731,0.2735,0.2747,0.2785,0.2794,0.2688,0.2688,0.2688,0,0,0.2596,0.2613,0.2619,0.2646,0.2659,0.2679,0.2673,0.2692,0.2708,0.2688,0.2704,0.2707,0.2707,0.2725,0.2731,0.2716,0.2775,0.2739,0.2743,0.2752,0.2789,0.2799,0.2808,0.269,0.2689,0.2689,0,0,0.26,0.2615,0.2628,0.2648,0.2676,0.2687,0.2696,0.2714,0.2722,0.274,0.2737,0.2754,0.2755,0.2767,0.2771,0.2811,0.2806,0.2808,0.2839,0.2876,0.2885,0.2893,0.293,0.2941,0.2805,0.2805,0.2805,0,0.2595,0.2617,0.2635,0.2658,0.2677,0.2693,0.2714,0.273,0.2748,0.2764,0.2749,0.2785,0.2779,0.2818,0.283,0.2824,0.2843,0.2811,0.2883,0.2891,0.2899,0.2935,0.2947,0.2808,0.2807,0.2807,0.2807,0,0.2611,0.2631,0.2643,0.2677,0.27,0.2722,0.2752,0.2774,0.2783,0.2799,0.2839,0.2842,0.2864,0.2866,0.2857,0.2912,0.2908,0.2889,0.2865,0.2912,0.2947,0.2959,0.2811,0.281,0.2809,0.2809,0,0,0.2587,0.2643,0.2645,0.2665,0.2714,0.2731,0.2773,0.2815,0.2846,0.2864,0.2907,0.2927,0.2934,0.2942,0.294,0.2966,0.3034,0.295,0.2951,0.2985,0.3121,0.312,0.3132,0.3026,0.3028,0.3029,0.3126,0,0.2591,0.2629,0.2662,0.2699,0.2721,0.2763,0.2802,0.2844,0.2876,0.2921,0.2947,0.2982,0.2962,0.2976,0.3005,0.3032,0.3065,0.301,0.3073,0.3075,0.3066,0.3145,0.3058,0.3137,0.3137,0.3139,0.3141,0,0.259,0.2618,0.2652,0.2714,0.2729,0.2754,0.2823,0.286,0.2935,0.2966,0.3015,0.3037,0.3097,0.3063,0.3144,0.311,0.3124,0.3136,0.314,0.3133,0.3095,0.3089,0.3158,0.3095,0.3158,0.3157,0.3156,0,0.255,0.2609,0.2634,0.2653,0.2726,0.2752,0.2791,0.2865,0.2919,0.2995,0.305,0.3109,0.3159,0.3187,0.3225,0.3188,0.3313,0.3261,0.3275,0.3275,0.3212,0.3203,0.3225,0.3319,0.3319,0.3319,0.3319,0,0.2536,0.2554,0.2614,0.2625,0.2667,0.2724,0.2778,0.2834,0.2933,0.2997,0.3065,0.3138,0.3194,0.327,0.327,0.3332,0.3355,0.331,0.3311,0.3224,0.3215,0.3164,0.3129,0.3322,0.3322,0.3321,0.332,0,0.2485,0.2524,0.2555,0.2623,0.2646,0.2669,0.2773,0.2818,0.2921,0.3012,0.3046,0.3195,0.3292,0.3351,0.342,0.3407,0.3363,0.3451,0.3352,0.3339,0.3265,0.3235,0.3149,0.3047,0.3478,0.3479,0.3479,0,0.2461,0.247,0.2535,0.2552,0.258,0.2631,0.2672,0.2789,0.285,0.3034,0.308,0.3236,0.3326,0.3468,0.3482,0.3521,0.3398,0.3446,0.3353,0.3281,0.3247,0.3101,0.3009,0.3287,0.3286,0.3285,0.3284,0,0.2415,0.2437,0.2463,0.2499,0.2534,0.2579,0.2648,0.2704,0.2838,0.2941,0.3082,0.318,0.3359,0.3393,0.3482,0.3478,0.3298,0.3429,0.3377,0.3134,0.2953,0.2849,0.3206,0.3277,0.3278,0.3278,0.3279,0.3279,0.2373,0.2378,0.2409,0.2437,0.2475,0.2501,0.2505,0.2603,0.2695,0.2815,0.2982,0.3093,0.3259,0.3388,0.3372,0.3325,0.3261,0.3226,0.3208,0.3076,0.2932,0.3285,0.3339,0.334,0.3341,0.3342,0.3342,0,0.2306,0.232,0.2346,0.2366,0.2365,0.2413,0.2468,0.2458,0.2512,0.2679,0.2792,0.2971,0.3067,0.3169,0.3232,0.3129,0.2947,0.3039,0.2808,0.2736,0.3088,0.3035,0.2997,0.2997,0.2997,0.2997,0.2997,0.2997,0.2272,0.2258,0.2271,0.2239,0.225,0.2207,0.2205,0.2224,0.2311,0.2416,0.2526,0.2671,0.2957,0.3129,0.3088,0.3001,0.2745,0.264,0.2595,0.2864,0.2879,0.2892,0.2834,0.2755,0.2755,0.2121,0.2117,0.2114]},{"header":{"parameterUnit":"m.s-1","parameterCategory":2,"la1":30.2991,"la2":30.254,"lo1":-89.0895,"lo2":-89.0444,"dy":0.0017,"dx":0.0017,"nx":28,"ny":28,"refTime":"2024-10-08T03:00:00:Z","depth":"0","parameterNumber":3,"parameterNumberName":"V-component_of_CURRENTS"},"data":[0,0,0,0,0,0,0,0,0,0,0,0,0,0,0,0,0,0,0,0,0,0,0,0,0,0,0,0,0,0,0,0,0,0,0,0,0,0,0,0,0,0,0,0,0,0,0,0,0,0,0,0,0,0,0,0,0,0,-0.0166,-0.0166,0,-0.0221,-0.0222,-0.0223,-0.0258,-0.0258,-0.0259,-0.0259,-0.0323,-0.0324,-0.0326,0,0,0,0,0,0,0,0,0,0,0,0,0,-0.0132,-0.0132,-0.0166,-0.0166,-0.0167,-0.0221,-0.0222,-0.0223,-0.0258,-0.0258,-0.0259,-0.0259,-0.0322,-0.0324,-0.0326,0,0,0,0,0,0,0,0,0,0,0,0,0,-0.0164,-0.0132,-0.0165,-0.019,-0.0192,-0.0221,-0.0222,-0.0223,-0.0258,-0.0258,-0.0259,-0.0259,-0.0322,-0.0324,-0.0327,-0.0339,0,0,-0.0334,-0.0335,0,0,0,0,0,0,0,0,-0.0162,-0.0166,-0.0186,-0.0188,-0.0191,-0.0232,-0.0234,-0.0262,-0.0258,-0.0235,-0.0259,-0.0259,-0.0292,-0.0297,-0.0309,-0.0342,-0.0345,-0.0334,-0.0336,-0.0337,-0.0337,0,0,0,0,0,0,0,-0.016,-0.0164,-0.0189,-0.0186,-0.019,-0.0212,-0.0217,-0.024,-0.0263,-0.0237,-0.0239,-0.0243,-0.0294,-0.0307,-0.0311,-0.0346,-0.0334,-0.0336,-0.0338,-0.0339,-0.0387,-0.0387,0,0,0,0,0,0,-0.0148,-0.0161,-0.0187,-0.0191,-0.0175,-0.0212,-0.0218,-0.022,-0.0263,-0.0269,-0.0243,-0.0244,-0.0303,-0.0308,-0.0313,-0.0314,-0.0337,-0.0339,-0.0341,-0.0388,-0.0387,-0.0387,0,0,0,0,0,0,-0.0147,-0.015,-0.0185,-0.0176,-0.0182,-0.0212,-0.0215,-0.0221,-0.023,-0.0267,-0.0274,-0.0245,-0.0303,-0.031,-0.0327,-0.0318,-0.034,-0.0342,-0.0388,-0.0388,-0.0387,-0.0327,0,0,0,0,0,0,-0.0146,-0.0149,-0.0147,-0.0175,-0.0182,-0.0191,-0.0215,-0.0222,-0.0231,-0.0234,-0.0271,-0.0278,-0.0303,-0.0323,-0.033,-0.0321,-0.0344,-0.0388,-0.0388,-0.0387,-0.0329,-0.0325,-0.0321,0,0,0,0,0,-0.0144,-0.0133,-0.0146,-0.0149,-0.0178,-0.019,-0.0196,-0.0219,-0.0231,-0.0229,-0.0256,-0.0276,-0.0326,-0.0325,-0.0332,-0.0325,-0.0388,-0.0388,-0.0387,-0.0331,-0.0326,-0.0321,0,0,0,0,0,0,-0.0115,-0.0137,-0.0151,-0.0147,-0.0164,-0.0195,-0.0195,-0.0213,-0.0234,-0.0236,-0.0274,-0.0282,-0.0295,-0.0319,-0.0317,-0.0339,-0.036,-0.0361,-0.0315,-0.031,-0.0306,-0.0286,-0.0346,0,0,0,0,0,-0.0108,-0.0108,-0.0133,-0.013,-0.0135,-0.0166,-0.0174,-0.0189,-0.0211,-0.0221,-0.0248,-0.0277,-0.03,-0.0311,-0.0336,-0.0346,-0.0371,-0.0347,-0.0343,-0.0339,-0.0328,-0.0365,-0.0362,-0.0386,-0.0386,-0.0386,0,0,-0.0097,-0.0108,-0.0109,-0.0124,-0.014,-0.0136,-0.0171,-0.0176,-0.0174,-0.0224,-0.0229,-0.0263,-0.03,-0.0312,-0.032,-0.033,-0.0345,-0.0338,-0.0335,-0.0326,-0.0364,-0.0362,-0.036,-0.0386,-0.0386,-0.0386,0,0,-0.0066,-0.0082,-0.007,-0.0079,-0.0095,-0.0112,-0.0109,-0.0136,-0.0149,-0.0162,-0.0197,-0.0222,-0.0258,-0.0281,-0.0298,-0.0286,-0.0322,-0.0296,-0.0257,-0.0292,-0.029,-0.0289,-0.0312,-0.0314,-0.0293,-0.0293,-0.0293,0,-0.005,-0.0039,-0.0068,-0.0056,-0.0055,-0.0095,-0.0077,-0.0096,-0.0125,-0.0131,-0.0153,-0.0208,-0.0241,-0.0255,-0.0253,-0.0275,-0.0299,-0.0271,-0.0286,-0.0285,-0.0285,-0.0309,-0.0311,-0.029,-0.029,-0.029,-0.0291,0,-0.0011,-0.0002,0.0007,0.0008,0.0005,0.0014,-0.0012,-0.0019,-0.0043,-0.0067,-0.009,-0.0142,-0.0172,-0.0191,-0.0219,-0.0231,-0.025,-0.0276,-0.0295,-0.0278,-0.0305,-0.0309,-0.0285,-0.0287,-0.0287,-0.0288,0,0,0.0032,0.0035,0.004,0.0055,0.0042,0.0048,0.005,0.0042,0.0051,0.0003,0.0006,-0.005,-0.0085,-0.0106,-0.015,-0.0183,-0.0206,-0.0223,-0.0227,-0.0239,-0.0276,-0.0282,-0.0287,-0.0238,-0.0239,-0.0239,-0.0293,0,0.0075,0.0115,0.0102,0.0142,0.0162,0.0133,0.0142,0.0127,0.0101,0.0091,0.0028,0.0009,-0.0051,-0.0064,-0.0107,-0.0178,-0.0213,-0.0188,-0.0296,-0.0299,-0.0301,-0.029,-0.0261,-0.0307,-0.0297,-0.0297,-0.0298,0,0.0124,0.0145,0.0191,0.0216,0.0222,0.0235,0.0247,0.025,0.0218,0.0194,0.0154,0.0106,0.0055,-0.0002,-0.0114,-0.0096,-0.0177,-0.0239,-0.0244,-0.0271,-0.0311,-0.0324,-0.0314,-0.0456,-0.0303,-0.0303,-0.0303,0,0.0176,0.0212,0.0253,0.0261,0.0277,0.0291,0.0296,0.028,0.03,0.0258,0.0266,0.0183,0.0158,0.0042,-0.0085,-0.0101,-0.021,-0.0251,-0.0332,-0.0333,-0.034,-0.0341,-0.0472,-0.0331,-0.0331,-0.0331,-0.0331,0,0.0232,0.0266,0.0281,0.0304,0.0361,0.0345,0.0394,0.0381,0.0383,0.0419,0.0324,0.0339,0.0167,0.0087,-0.0052,-0.0191,-0.0187,-0.0317,-0.0347,-0.0318,-0.0316,-0.0466,-0.0561,-0.0333,-0.0332,-0.0332,-0.0332,0,0.0283,0.029,0.0343,0.037,0.0386,0.0424,0.0471,0.0509,0.0489,0.0534,0.053,0.0463,0.0358,0.0185,0.0007,-0.0128,-0.0361,-0.033,-0.0276,-0.0299,-0.0509,-0.0602,-0.0779,-0.0847,-0.0426,-0.0427,-0.0427,0,0.0312,0.0344,0.0398,0.0439,0.0453,0.0507,0.0552,0.0558,0.0609,0.0622,0.0661,0.058,0.0553,0.0289,0.0033,-0.0204,-0.0366,-0.0349,-0.038,-0.051,-0.0636,-0.0711,-0.076,-0.0366,-0.0366,-0.0366,-0.0366,0,0.0371,0.0386,0.0431,0.0514,0.057,0.0643,0.0707,0.077,0.0789,0.0835,0.0889,0.0872,0.0626,0.0415,0.0074,-0.0108,-0.0453,-0.0354,-0.0508,-0.0612,-0.0683,-0.0764,-0.0338,-0.0365,-0.0365,-0.0365,-0.0365,-0.0365,0.0416,0.0459,0.0518,0.0602,0.0672,0.0769,0.0844,0.0929,0.1032,0.112,0.1084,0.1097,0.0759,0.0314,0.0044,-0.0426,-0.0455,-0.0562,-0.0666,-0.073,-0.0794,-0.0357,-0.0407,-0.0408,-0.0408,-0.0408,-0.0408,0,0.0477,0.0525,0.0603,0.0701,0.0792,0.0816,0.0948,0.1035,0.1176,0.1266,0.1323,0.1182,0.0768,0.0315,-0.0312,-0.0656,-0.08,-0.0861,-0.0965,-0.1002,-0.0622,-0.0616,-0.0689,-0.0689,-0.0689,-0.0689,-0.0689,-0.0689,0.0509,0.0593,0.0632,0.0788,0.0862,0.0991,0.1074,0.1207,0.1309,0.1436,0.1469,0.1462,0.113,-0.0004,-0.078,-0.0978,-0.123,-0.1298,-0.1434,-0.1178,-0.1158,-0.1139,-0.1155,-0.134,-0.134,-0.1747,-0.1751,-0.1754]}],[{"header":{"parameterUnit":"m.s-1","parameterCategory":2,"la1":30.2991,"la2":30.254,"lo1":-89.0895,"lo2":-89.0444,"dy":0.0017,"dx":0.0017,"nx":28,"ny":28,"refTime":"2024-10-08T03:00:00:Z","depth":"2","parameterNumber":2,"parameterNumberName":"U-component_of_CURRENTS"},"data":[0,0,0,0,0,0,0,0,0,0,0,0,0,0,0,0,0,0,0,0,0,0,0,0,0,0,0,0,0,0,0,0,0,0,0,0,0,0,0,0,0,0,0,0,0,0,0,0,0,0,0,0,0,0,0,0,0,0,0.2426,0.2427,0,0.2451,0.2451,0.2451,0.2451,0.2451,0.2451,0.2451,0.2451,0.2451,0.2451,0,0,0,0,0,0,0,0,0,0,0,0,0,0.2375,0.2375,0.2426,0.2427,0.2427,0.2451,0.2451,0.2451,0.2451,0.2451,0.2451,0.2451,0.2451,0.2451,0.2451,0,0,0,0,0,0,0,0,0,0,0,0,0,0.2395,0.2376,0.2426,0.2432,0.2433,0.2451,0.2451,0.2451,0.2451,0.2451,0.2451,0.2451,0.2451,0.2451,0.2451,0.2454,0,0,0.2452,0.2452,0,0,0,0,0,0,0,0,0.2394,0.2397,0.2431,0.2432,0.2433,0.245,0.2433,0.2452,0.2451,0.2441,0.2451,0.2451,0.245,0.2451,0.2452,0.2454,0.2454,0.2452,0.2452,0.2452,0.2452,0,0,0,0,0,0,0,0.2393,0.2396,0.2433,0.2431,0.2433,0.2432,0.2435,0.2436,0.2444,0.2442,0.2443,0.245,0.245,0.2452,0.2452,0.2454,0.2452,0.2452,0.2452,0.2452,0.2504,0.2505,0,0,0,0,0,0,0.2396,0.2395,0.2432,0.2434,0.2416,0.2433,0.2436,0.2442,0.2444,0.2445,0.245,0.245,0.2452,0.2452,0.2452,0.2491,0.2452,0.2452,0.2452,0.2503,0.2504,0.2506,0,0,0,0,0,0,0.2394,0.2399,0.2432,0.2417,0.2421,0.2435,0.2442,0.2443,0.2455,0.2451,0.2451,0.2462,0.2452,0.2452,0.2469,0.249,0.2452,0.2452,0.2501,0.2503,0.2505,0.2547,0,0,0,0,0,0,0.2393,0.2398,0.2406,0.2417,0.2422,0.2452,0.2442,0.2444,0.246,0.2461,0.2461,0.2461,0.2452,0.2469,0.2469,0.249,0.2452,0.2499,0.2502,0.2504,0.2544,0.2551,0.2556,0,0,0,0,0,0.2391,0.2401,0.2406,0.2411,0.2432,0.2453,0.2455,0.2462,0.2461,0.2471,0.2475,0.2461,0.2485,0.247,0.247,0.2491,0.2498,0.2501,0.2504,0.2542,0.2549,0.2556,0,0,0,0,0,0,0.2381,0.2403,0.2408,0.2424,0.2443,0.2454,0.2466,0.247,0.2481,0.2484,0.2475,0.2475,0.2501,0.2492,0.2476,0.2515,0.2491,0.2494,0.2519,0.2526,0.2532,0.2543,0.2452,0,0,0,0,0,0.2384,0.2399,0.2419,0.2433,0.2444,0.2458,0.2468,0.2475,0.2486,0.2491,0.2492,0.2498,0.2511,0.2515,0.2523,0.254,0.2549,0.2555,0.2561,0.2566,0.2576,0.261,0.262,0.2515,0.2515,0.2515,0,0,0.2384,0.2399,0.2407,0.2433,0.2447,0.2467,0.2463,0.2486,0.2504,0.2489,0.2513,0.252,0.2522,0.2546,0.2556,0.254,0.2603,0.257,0.2574,0.2581,0.2614,0.2624,0.2633,0.2517,0.2517,0.2517,0,0,0.2391,0.2407,0.2422,0.2441,0.247,0.2481,0.2492,0.2512,0.2524,0.2548,0.2548,0.2571,0.2579,0.2592,0.2597,0.264,0.2635,0.2642,0.2675,0.2707,0.2716,0.2724,0.2756,0.2766,0.264,0.264,0.264,0,0.239,0.2412,0.243,0.2452,0.2471,0.249,0.2512,0.2529,0.2552,0.257,0.2562,0.2605,0.2604,0.2643,0.2659,0.2654,0.2671,0.2645,0.2715,0.2723,0.273,0.2761,0.2771,0.2643,0.2642,0.2642,0.2642,0,0.2408,0.2429,0.2442,0.2476,0.2499,0.2523,0.2552,0.2577,0.2593,0.261,0.2656,0.2663,0.269,0.2695,0.2688,0.2743,0.2739,0.2721,0.2696,0.2743,0.2772,0.2783,0.2646,0.2645,0.2645,0.2644,0,0,0.239,0.2443,0.2447,0.2467,0.2515,0.2532,0.2576,0.2618,0.265,0.2676,0.2721,0.2748,0.276,0.2769,0.2771,0.2796,0.2861,0.2783,0.2783,0.2812,0.2941,0.2919,0.2928,0.2855,0.2857,0.2858,0.2942,0,0.2397,0.2434,0.2465,0.2504,0.2525,0.2567,0.2606,0.2649,0.2684,0.2731,0.2761,0.28,0.2786,0.2806,0.2834,0.2859,0.289,0.2841,0.2893,0.2895,0.2867,0.294,0.2716,0.2771,0.2952,0.2954,0.2955,0,0.2398,0.2425,0.246,0.252,0.2535,0.2563,0.2632,0.2669,0.2744,0.2777,0.2829,0.2855,0.2916,0.2887,0.2963,0.2934,0.2946,0.2956,0.2959,0.2932,0.2892,0.2752,0.2783,0.2973,0.2971,0.297,0.2969,0,0.2363,0.242,0.2447,0.2466,0.2536,0.2566,0.2606,0.2679,0.2731,0.2809,0.2863,0.2923,0.2975,0.3001,0.3037,0.3006,0.3115,0.3069,0.3062,0.3061,0.2878,0.2857,0.3122,0.3122,0.3122,0.3122,0.3121,0,0.235,0.2371,0.2432,0.2444,0.2488,0.2544,0.2601,0.2656,0.2752,0.2812,0.2883,0.2948,0.3008,0.3076,0.3077,0.3121,0.3153,0.3093,0.309,0.2887,0.2868,0.304,0.303,0.3125,0.3124,0.3123,0.3123,0,0.2304,0.2344,0.2377,0.2446,0.247,0.2498,0.26,0.2644,0.2744,0.283,0.2866,0.3001,0.3086,0.3143,0.3204,0.3185,0.3211,0.3212,0.2978,0.2946,0.312,0.3111,0.3212,0.3212,0.3212,0.3212,0.3212,0,0.2283,0.2294,0.2362,0.238,0.2411,0.2466,0.2508,0.2621,0.2675,0.2846,0.2886,0.3028,0.3095,0.3212,0.3208,0.3233,0.3249,0.3026,0.2923,0.3148,0.3135,0.3125,0.3116,0.2694,0.269,0.2687,0.2684,0,0.2241,0.2266,0.2292,0.2331,0.237,0.2413,0.2482,0.253,0.2656,0.2748,0.2863,0.2941,0.3081,0.3024,0.3089,0.3058,0.3003,0.296,0.3262,0.2715,0.2669,0.2653,0.2659,0.2654,0.2657,0.2659,0.2661,0.2662,0.2204,0.2209,0.2242,0.2272,0.2314,0.2335,0.2337,0.2423,0.2498,0.2591,0.2735,0.2774,0.2841,0.2834,0.2767,0.2721,0.2913,0.2761,0.2767,0.2777,0.2712,0.2669,0.2642,0.2644,0.2647,0.2649,0.2651,0,0.2141,0.2155,0.2181,0.2202,0.2201,0.2255,0.2298,0.2276,0.2308,0.2425,0.2505,0.2366,0.2371,0.242,0.2323,0.2349,0.2278,0.2236,0.2109,0.2144,0.2175,0.2071,0.1835,0.1831,0.1828,0.1826,0,0,0.211,0.2095,0.2104,0.2073,0.2088,0.205,0.2044,0.2037,0.2081,0.2075,0.2086,0.2277,0.2377,0.2068,0.2053,0.1919,0.2,0.1848,0.2516,0.2404,0.2429,0.2511,0.2399,0,0,0,0,0]},{"header":{"parameterUnit":"m.s-1","parameterCategory":2,"la1":30.2991,"la2":30.254,"lo1":-89.0895,"lo2":-89.0444,"dy":0.0017,"dx":0.0017,"nx":28,"ny":28,"refTime":"2024-10-08T03:00:00:Z","depth":"2","parameterNumber":3,"parameterNumberName":"V-component_of_CURRENTS"},"data":[0,0,0,0,0,0,0,0,0,0,0,0,0,0,0,0,0,0,0,0,0,0,0,0,0,0,0,0,0,0,0,0,0,0,0,0,0,0,0,0,0,0,0,0,0,0,0,0,0,0,0,0,0,0,0,0,0,0,0.0048,0.0048,0,-0.0007,-0.0008,-0.0009,-0.005,-0.0051,-0.0051,-0.0051,-0.0119,-0.012,-0.0122,0,0,0,0,0,0,0,0,0,0,0,0,0,0.0079,0.0079,0.0048,0.0048,0.0047,-0.0007,-0.0008,-0.0009,-0.005,-0.0051,-0.0051,-0.0051,-0.0118,-0.012,-0.0122,0,0,0,0,0,0,0,0,0,0,0,0,0,0.0048,0.0079,0.0048,0.0021,0.0018,-0.0007,-0.0008,-0.0009,-0.005,-0.0051,-0.0051,-0.0051,-0.0118,-0.012,-0.0122,-0.0129,0,0,-0.0129,-0.013,0,0,0,0,0,0,0,0,0.005,0.0047,0.0026,0.0023,0.0019,-0.0021,-0.0022,-0.0049,-0.005,-0.0025,-0.0051,-0.0051,-0.0086,-0.0091,-0.0102,-0.0132,-0.0135,-0.0129,-0.0131,-0.0132,-0.0133,0,0,0,0,0,0,0,0.0052,0.0049,0.0025,0.0025,0.0021,-0.0002,-0.0007,-0.0028,-0.0054,-0.0028,-0.0031,-0.0035,-0.0088,-0.01,-0.0104,-0.0136,-0.0129,-0.0131,-0.0133,-0.0134,-0.018,-0.018,0,0,0,0,0,0,0.0064,0.0051,0.0027,0.0024,0.0035,-0.0002,-0.0008,-0.0009,-0.0054,-0.006,-0.0034,-0.0036,-0.0096,-0.0101,-0.0107,-0.0111,-0.0132,-0.0134,-0.0135,-0.018,-0.018,-0.018,0,0,0,0,0,0,0.0065,0.0062,0.0029,0.0037,0.0031,-0.0002,-0.0003,-0.001,-0.0022,-0.0058,-0.0066,-0.004,-0.0096,-0.0103,-0.0121,-0.0115,-0.0135,-0.0137,-0.018,-0.018,-0.018,-0.0125,0,0,0,0,0,0,0.0066,0.0063,0.0065,0.0038,0.0031,0.0022,-0.0003,-0.001,-0.0023,-0.0026,-0.0065,-0.0072,-0.0097,-0.0118,-0.0124,-0.0118,-0.0139,-0.0181,-0.018,-0.018,-0.0127,-0.0123,-0.0119,0,0,0,0,0,0.0067,0.0078,0.0065,0.0062,0.0035,0.0023,0.0017,-0.0009,-0.0023,-0.0022,-0.005,-0.0071,-0.012,-0.0119,-0.0126,-0.0121,-0.0181,-0.018,-0.018,-0.0129,-0.0123,-0.0119,0,0,0,0,0,0,0.0093,0.0074,0.006,0.0063,0.0046,0.0016,0.0014,-0.0004,-0.0027,-0.0031,-0.0068,-0.0076,-0.009,-0.0113,-0.0111,-0.0135,-0.0154,-0.0155,-0.0113,-0.0108,-0.0105,-0.0086,-0.0141,0,0,0,0,0,0.01,0.0101,0.0077,0.008,0.0074,0.0044,0.0034,0.0018,-0.0005,-0.0015,-0.0043,-0.0072,-0.0094,-0.0106,-0.013,-0.014,-0.0165,-0.0143,-0.0139,-0.0136,-0.0126,-0.0161,-0.0159,-0.0179,-0.0179,-0.0179,0,0,0.0109,0.0099,0.0099,0.0085,0.0068,0.0071,0.0037,0.003,0.003,-0.0018,-0.0027,-0.006,-0.0094,-0.0107,-0.0116,-0.0125,-0.0143,-0.0135,-0.0132,-0.0124,-0.016,-0.0158,-0.0157,-0.0178,-0.0178,-0.0178,0,0,0.0136,0.0122,0.0133,0.0125,0.0108,0.0091,0.0092,0.0065,0.0051,0.0036,0.0002,-0.0022,-0.0058,-0.008,-0.0096,-0.0084,-0.0122,-0.0096,-0.006,-0.0094,-0.0093,-0.0092,-0.0118,-0.012,-0.0093,-0.0093,-0.0093,0,0.0148,0.016,0.0134,0.0145,0.0145,0.0106,0.0121,0.0103,0.0072,0.0066,0.0042,-0.0011,-0.0043,-0.0055,-0.0054,-0.0074,-0.0099,-0.0074,-0.0089,-0.0088,-0.0088,-0.0115,-0.0118,-0.0091,-0.0091,-0.0091,-0.0091,0,0.0184,0.0193,0.02,0.0201,0.0197,0.0204,0.018,0.0172,0.0146,0.0123,0.01,0.005,0.0021,0.0002,-0.0024,-0.0036,-0.0056,-0.008,-0.0097,-0.0083,-0.0112,-0.0116,-0.0087,-0.0088,-0.0088,-0.0089,0,0,0.0219,0.0225,0.0229,0.0243,0.023,0.0235,0.0236,0.0229,0.0236,0.0188,0.0189,0.0136,0.0101,0.0081,0.004,0.0007,-0.0018,-0.0032,-0.0035,-0.0051,-0.009,-0.0102,-0.0108,-0.0048,-0.0048,-0.0048,-0.0109,0,0.0256,0.0294,0.0283,0.032,0.034,0.0312,0.0321,0.0306,0.0281,0.0271,0.021,0.0191,0.0134,0.012,0.0078,0.0009,-0.0026,0.0001,-0.0107,-0.0109,-0.0118,-0.0112,-0.0085,-0.0137,-0.0113,-0.0114,-0.0114,0,0.0298,0.032,0.0362,0.0389,0.0395,0.0406,0.0417,0.042,0.039,0.0366,0.0328,0.0281,0.0231,0.0176,0.0066,0.0085,0.0006,-0.0055,-0.0059,-0.0091,-0.0129,-0.0149,-0.0145,-0.0121,-0.0121,-0.012,-0.012,0,0.0343,0.0379,0.0418,0.0426,0.0443,0.0456,0.0461,0.0447,0.0468,0.0426,0.0432,0.0352,0.0324,0.0213,0.0087,0.0075,-0.0036,-0.0071,-0.0157,-0.0159,-0.0165,-0.0167,-0.015,-0.015,-0.015,-0.015,-0.015,0,0.0392,0.0424,0.0442,0.0463,0.0518,0.0505,0.0552,0.054,0.0542,0.0576,0.0485,0.0495,0.033,0.025,0.0117,-0.0024,-0.0016,-0.0145,-0.0175,-0.0146,-0.0145,-0.0156,-0.0156,-0.0152,-0.0152,-0.0151,-0.0151,0,0.0436,0.0444,0.0495,0.0524,0.0539,0.0575,0.0623,0.066,0.0641,0.0683,0.0678,0.0607,0.0497,0.0332,0.0157,0.003,-0.0114,-0.0168,-0.0119,-0.0141,-0.0222,-0.0219,-0.0269,-0.027,-0.0271,-0.0272,-0.0272,0,0.046,0.0491,0.0545,0.0583,0.0597,0.065,0.0695,0.0705,0.0753,0.0761,0.0795,0.0706,0.0665,0.0403,0.016,-0.007,-0.0108,-0.0204,-0.0228,-0.021,-0.0234,-0.0229,-0.0225,-0.0217,-0.0217,-0.0217,-0.0217,0,0.0512,0.0527,0.0571,0.065,0.0704,0.0778,0.084,0.0899,0.0919,0.0955,0.0988,0.0957,0.0711,0.0487,0.0162,0.0003,-0.0168,-0.0213,-0.0208,-0.0188,-0.0165,-0.0187,-0.0184,-0.0218,-0.0218,-0.0217,-0.0217,-0.0217,0.0552,0.0593,0.0649,0.0728,0.0797,0.0891,0.0962,0.1038,0.1127,0.1185,0.1144,0.1098,0.0832,0.0429,0.0142,-0.0168,-0.0157,-0.0266,-0.0265,-0.0263,-0.0243,-0.0223,-0.0282,-0.0282,-0.0282,-0.0282,-0.0283,0,0.0605,0.0651,0.0726,0.0819,0.0905,0.0931,0.1055,0.1129,0.1242,0.1285,0.1308,0.1064,0.0805,0.0489,0.0037,-0.0229,-0.0252,-0.0318,-0.0285,-0.0282,-0.028,-0.0261,-0.0305,-0.0306,-0.0307,-0.0307,0,0,0.0633,0.0712,0.075,0.0894,0.0963,0.1085,0.1161,0.1264,0.1325,0.1373,0.1347,0.129,0.0905,0.058,0.0214,-0.0049,-0.0107,-0.0103,-0.0056,0.0029,0.0034,-0.022,-0.0182,0,0,0,0,0]}],[{"header":{"parameterUnit":"m.s-1","parameterCategory":2,"la1":30.2991,"la2":30.254,"lo1":-89.0895,"lo2":-89.0444,"dy":0.0017,"dx":0.0017,"nx":28,"ny":28,"refTime":"2024-10-08T03:00:00:Z","depth":"4","parameterNumber":2,"parameterNumberName":"U-component_of_CURRENTS"},"data":[0,0,0,0,0,0,0,0,0,0,0,0,0,0,0,0,0,0,0,0,0,0,0,0,0,0,0,0,0,0,0,0,0,0,0,0,0,0,0,0,0,0,0,0,0,0,0,0,0,0,0,0,0,0,0,0,0,0,0.1572,0.1573,0,0.1631,0.1631,0.1632,0.1681,0.1682,0.1683,0.1684,0.1751,0.1752,0.1753,0,0,0,0,0,0,0,0,0,0,0,0,0,0.1494,0.1495,0.1572,0.1573,0.1574,0.1631,0.1631,0.1632,0.1681,0.1682,0.1683,0.1684,0.1751,0.1752,0.1753,0,0,0,0,0,0,0,0,0,0,0,0,0,0.1536,0.1496,0.1572,0.1607,0.1611,0.1631,0.1631,0.1632,0.1681,0.1682,0.1683,0.1684,0.175,0.1752,0.1754,0.1742,0,0,0.1759,0.1759,0,0,0,0,0,0,0,0,0.1534,0.1539,0.1601,0.1605,0.1609,0.1652,0.1629,0.167,0.1681,0.1652,0.1684,0.1685,0.1719,0.1724,0.1729,0.1745,0.1748,0.1759,0.176,0.1761,0.1761,0,0,0,0,0,0,0,0.1531,0.1536,0.1593,0.1602,0.1607,0.1617,0.1624,0.1637,0.1677,0.1655,0.1659,0.1669,0.1721,0.1727,0.1731,0.1749,0.1759,0.176,0.1761,0.1762,0.1866,0.1868,0,0,0,0,0,0,0.1527,0.1534,0.1591,0.1595,0.1576,0.1618,0.1625,0.1635,0.1677,0.1685,0.1668,0.1671,0.1724,0.1729,0.1734,0.1818,0.1761,0.1762,0.1763,0.1864,0.1866,0.1868,0,0,0,0,0,0,0.1525,0.1532,0.1589,0.1567,0.1576,0.1618,0.1629,0.1636,0.1677,0.1687,0.1695,0.1706,0.1725,0.1731,0.178,0.1817,0.1763,0.1764,0.1862,0.1865,0.1867,0.1924,0,0,0,0,0,0,0.1523,0.153,0.1552,0.1567,0.1577,0.1624,0.1628,0.1636,0.168,0.1686,0.1722,0.1727,0.1726,0.1778,0.1782,0.1818,0.1766,0.186,0.1863,0.1867,0.192,0.1929,0.1936,0,0,0,0,0,0.152,0.1539,0.1553,0.1561,0.16,0.1625,0.1632,0.1663,0.1682,0.1704,0.1734,0.1728,0.1802,0.178,0.1785,0.1823,0.1858,0.1862,0.1866,0.1917,0.1927,0.1936,0,0,0,0,0,0,0.1518,0.1546,0.1562,0.1591,0.1618,0.1635,0.1665,0.1682,0.1723,0.1741,0.1747,0.1755,0.1812,0.181,0.1786,0.1864,0.183,0.1835,0.1867,0.1877,0.1885,0.1887,0.1767,0,0,0,0,0,0.1526,0.1553,0.1576,0.1605,0.1621,0.165,0.1671,0.1693,0.1722,0.1743,0.1768,0.1797,0.1825,0.1846,0.1867,0.1906,0.1907,0.1935,0.1943,0.195,0.1956,0.1988,0.1998,0.1881,0.1881,0.1881,0,0,0.1535,0.1555,0.1572,0.1607,0.1634,0.1662,0.1666,0.171,0.1743,0.1742,0.1806,0.1828,0.1842,0.189,0.1915,0.1898,0.1986,0.1955,0.196,0.1963,0.1993,0.2004,0.2014,0.1884,0.1884,0.1883,0,0,0.1553,0.1584,0.1609,0.1635,0.1681,0.1696,0.1716,0.1755,0.1787,0.1838,0.1852,0.1898,0.1938,0.1957,0.1969,0.2032,0.2026,0.2046,0.2088,0.2119,0.2129,0.2137,0.216,0.217,0.205,0.205,0.205,0,0.1566,0.1596,0.1622,0.1651,0.168,0.1715,0.1748,0.178,0.1832,0.1862,0.1871,0.1952,0.1967,0.2021,0.2048,0.205,0.2065,0.2049,0.2129,0.2137,0.2145,0.2166,0.2176,0.2053,0.2053,0.2052,0.2052,0,0.1589,0.1628,0.1648,0.1695,0.1728,0.1766,0.1807,0.1854,0.1897,0.1925,0.2002,0.2028,0.2075,0.2091,0.2091,0.2159,0.2152,0.2134,0.2101,0.216,0.2179,0.2188,0.2058,0.2056,0.2055,0.2055,0,0,0.1576,0.165,0.1661,0.1692,0.1758,0.1782,0.1848,0.1905,0.1952,0.2012,0.2073,0.213,0.2155,0.2171,0.2185,0.2215,0.2285,0.2207,0.2207,0.2224,0.2359,0.2224,0.2221,0.2285,0.2287,0.2289,0.2353,0,0.1591,0.1646,0.1684,0.1747,0.1777,0.1835,0.1888,0.195,0.2005,0.2072,0.212,0.2183,0.2182,0.2219,0.2253,0.2281,0.2314,0.227,0.2305,0.2306,0.2174,0.2229,0.2295,0.236,0.2362,0.2363,0.2365,0,0.1593,0.1633,0.1693,0.1773,0.1794,0.1842,0.1933,0.1985,0.2079,0.2127,0.2199,0.2239,0.2315,0.2297,0.2377,0.2354,0.2368,0.2378,0.238,0.2238,0.2188,0.2289,0.2382,0.238,0.2379,0.2378,0.2377,0,0.1552,0.1636,0.1687,0.1714,0.1808,0.1858,0.1916,0.2008,0.2066,0.2171,0.2229,0.2308,0.2371,0.2403,0.2442,0.2421,0.2514,0.2478,0.2368,0.2359,0.2435,0.2425,0.2528,0.2528,0.2528,0.2527,0.2527,0,0.1531,0.1576,0.1678,0.1702,0.1772,0.1846,0.1928,0.1997,0.2106,0.2167,0.2261,0.2316,0.2405,0.2466,0.2474,0.2455,0.2542,0.2384,0.2368,0.2459,0.2451,0.2442,0.2431,0.253,0.2529,0.2529,0.2528,0,0.1473,0.1541,0.1603,0.1714,0.1754,0.1804,0.1935,0.1985,0.2103,0.2189,0.2233,0.236,0.2426,0.2493,0.2552,0.2487,0.2482,0.2453,0.2564,0.2551,0.2298,0.229,0.2322,0.2318,0.2315,0.2312,0.2309,0,0.1443,0.1471,0.1597,0.1635,0.1693,0.1781,0.1838,0.1969,0.2018,0.2186,0.2212,0.234,0.2401,0.2381,0.2456,0.2463,0.2434,0.2417,0.2336,0.2297,0.2279,0.2276,0.2273,0.2304,0.2303,0.2302,0.2301,0,0.1385,0.1446,0.1496,0.1577,0.1647,0.1708,0.1799,0.1828,0.1964,0.2098,0.2137,0.2175,0.225,0.2285,0.2322,0.2317,0.2414,0.2379,0.2385,0.2308,0.2275,0.2259,0.226,0.2288,0.229,0.2291,0.2292,0,0.1345,0.1364,0.1439,0.1497,0.158,0.1604,0.1664,0.1718,0.1788,0.1965,0.1972,0.2099,0.2219,0.2211,0.2238,0.2234,0.2189,0.2105,0.2124,0.2139,0.2049,0.1978,0.1893,0,0,0,0,0,0.1292,0.13,0.135,0.1401,0.1478,0.1521,0.1622,0.1682,0.1817,0.1796,0.1877,0.1929,0.1972,0.2042,0.1999,0.2162,0.2202,0.2103,0.2117,0.222,0.2234,0.2145,0,0,0,0,0,0,0.1255,0.1298,0.1312,0.1309,0.1325,0.1388,0.1444,0.1533,0.1525,0.167,0.1703,0.1817,0.189,0.1977,0.1964,0.1986,0.1955,0.2189,0.2184,0.2212,0.2225,0.2236,0.2149,0,0,0,0,0]},{"header":{"parameterUnit":"m.s-1","parameterCategory":2,"la1":30.2991,"la2":30.254,"lo1":-89.0895,"lo2":-89.0444,"dy":0.0017,"dx":0.0017,"nx":28,"ny":28,"refTime":"2024-10-08T03:00:00:Z","depth":"4","parameterNumber":3,"parameterNumberName":"V-component_of_CURRENTS"},"data":[0,0,0,0,0,0,0,0,0,0,0,0,0,0,0,0,0,0,0,0,0,0,0,0,0,0,0,0,0,0,0,0,0,0,0,0,0,0,0,0,0,0,0,0,0,0,0,0,0,0,0,0,0,0,0,0,0,0,0.0155,0.0155,0,0.0117,0.0117,0.0116,0.0087,0.0087,0.0087,0.0087,0.0036,0.0035,0.0034,0,0,0,0,0,0,0,0,0,0,0,0,0,0.0174,0.0174,0.0155,0.0155,0.0155,0.0117,0.0117,0.0116,0.0087,0.0087,0.0087,0.0087,0.0036,0.0035,0.0034,0,0,0,0,0,0,0,0,0,0,0,0,0,0.0153,0.0174,0.0156,0.0136,0.0134,0.0117,0.0117,0.0116,0.0087,0.0087,0.0087,0.0087,0.0037,0.0035,0.0033,0.0028,0,0,0.0028,0.0027,0,0,0,0,0,0,0,0,0.0154,0.0152,0.014,0.0138,0.0135,0.0107,0.0105,0.0086,0.0087,0.0104,0.0087,0.0086,0.0059,0.0056,0.0048,0.0026,0.0024,0.0028,0.0027,0.0026,0.0026,0,0,0,0,0,0,0,0.0156,0.0154,0.014,0.0139,0.0137,0.012,0.0116,0.0101,0.0083,0.0103,0.0101,0.0098,0.0058,0.005,0.0047,0.0023,0.0028,0.0026,0.0025,0.0025,-0.0011,-0.0011,0,0,0,0,0,0,0.0164,0.0155,0.0141,0.0138,0.0145,0.012,0.0116,0.0116,0.0084,0.0079,0.0098,0.0097,0.0053,0.0049,0.0045,0.0043,0.0026,0.0024,0.0023,-0.0011,-0.0011,-0.0011,0,0,0,0,0,0,0.0165,0.0163,0.0142,0.0146,0.0143,0.012,0.012,0.0115,0.0109,0.008,0.0075,0.0097,0.0053,0.0047,0.0035,0.004,0.0024,0.0022,-0.0011,-0.0011,-0.0011,0.0034,0,0,0,0,0,0,0.0165,0.0164,0.0168,0.0147,0.0143,0.0138,0.012,0.0115,0.0108,0.0106,0.0077,0.0072,0.0052,0.0038,0.0033,0.0037,0.0021,-0.0011,-0.0011,-0.0011,0.0033,0.0036,0.0039,0,0,0,0,0,0.0166,0.0175,0.0168,0.0166,0.0149,0.0138,0.0134,0.0116,0.0108,0.0109,0.009,0.0073,0.0036,0.0037,0.0031,0.0035,-0.0011,-0.0011,-0.0011,0.0031,0.0035,0.0039,0,0,0,0,0,0,0.0184,0.0172,0.0164,0.0169,0.0156,0.0134,0.0134,0.0121,0.0106,0.0105,0.0076,0.007,0.006,0.0041,0.0043,0.0024,0.0009,0.0008,0.0042,0.0046,0.0049,0.0063,0.0019,0,0,0,0,0,0.0191,0.0195,0.0177,0.0181,0.0177,0.0156,0.015,0.0139,0.0122,0.0115,0.0095,0.0073,0.0056,0.0047,0.0029,0.0021,-0.0001,0.0019,0.0022,0.0025,0.0032,0.0,0.0001,-0.001,-0.001,-0.001,0,0,0.0199,0.0193,0.0195,0.0185,0.0175,0.0176,0.0152,0.0148,0.0149,0.0113,0.0108,0.0084,0.0056,0.0047,0.004,0.0033,0.0015,0.0025,0.0028,0.0034,0.0001,0.0002,0.0003,-0.001,-0.001,-0.001,0,0,0.0218,0.0212,0.0222,0.0216,0.0205,0.0193,0.0195,0.0175,0.0166,0.0157,0.0132,0.0113,0.0087,0.0069,0.0056,0.0065,0.0032,0.0056,0.0084,0.0053,0.0054,0.0055,0.0027,0.0025,0.0058,0.0058,0.0058,0,0.0228,0.0238,0.0222,0.023,0.0232,0.0205,0.0217,0.0204,0.0182,0.0179,0.0163,0.0123,0.0098,0.0087,0.0089,0.0073,0.005,0.0074,0.0058,0.0058,0.0058,0.0029,0.0026,0.006,0.006,0.006,0.006,0,0.0252,0.0262,0.0268,0.0271,0.027,0.0276,0.0259,0.0255,0.024,0.0223,0.0207,0.017,0.0148,0.0133,0.0113,0.0101,0.0083,0.0066,0.0051,0.0062,0.0031,0.0027,0.0063,0.0063,0.0062,0.0061,0,0,0.0273,0.0284,0.0287,0.0302,0.0294,0.0299,0.0302,0.0299,0.0307,0.0273,0.0275,0.0235,0.021,0.0194,0.0162,0.0134,0.0108,0.0103,0.01,0.0081,0.004,0.0028,0.0022,0.0085,0.0085,0.0084,0.002,0,0.0298,0.0328,0.0324,0.0356,0.0371,0.0356,0.0365,0.0357,0.0341,0.0335,0.029,0.0278,0.0234,0.0226,0.019,0.0131,0.0099,0.0127,0.0029,0.0026,0.0018,0.0018,0.0083,0.0017,0.0016,0.0015,0.0014,0,0.0324,0.0343,0.0379,0.0407,0.0413,0.0426,0.0442,0.0446,0.0426,0.0411,0.0383,0.0348,0.0307,0.0266,0.017,0.0189,0.0121,0.0069,0.0065,0.0037,0.0006,0.0003,0.0007,0.0007,0.0008,0.0008,0.0009,0,0.035,0.0384,0.0418,0.0426,0.0449,0.0465,0.0476,0.047,0.0488,0.0461,0.0466,0.0401,0.0378,0.0286,0.0179,0.0174,0.0067,0.0044,-0.0032,-0.0033,-0.0023,-0.0022,-0.0026,-0.0026,-0.0026,-0.0026,-0.0026,0,0.0378,0.0407,0.0437,0.0455,0.0505,0.0504,0.0548,0.0543,0.0551,0.0575,0.0511,0.0509,0.0381,0.0308,0.0199,0.0074,0.0079,-0.0024,-0.005,-0.0003,0.0,-0.0026,-0.0025,-0.0028,-0.0028,-0.0027,-0.0027,0,0.0398,0.0415,0.0461,0.0499,0.0519,0.0553,0.0607,0.0639,0.0631,0.066,0.0658,0.0593,0.0489,0.0358,0.0206,0.0109,-0.0014,-0.0062,0.0007,-0.0015,-0.01,-0.0096,-0.015,-0.0151,-0.0152,-0.0153,-0.0153,0,0.041,0.0436,0.0498,0.0535,0.0555,0.0611,0.0654,0.0674,0.0708,0.0711,0.0727,0.0648,0.0582,0.0368,0.0214,0.0005,-0.003,-0.0098,-0.0108,-0.0092,-0.0112,-0.0107,-0.0102,-0.0154,-0.0155,-0.0155,-0.0155,0,0.0434,0.0458,0.0497,0.0573,0.0629,0.0696,0.0753,0.0787,0.0809,0.0812,0.0785,0.0673,0.0554,0.0375,0.0212,0.006,-0.0056,-0.0107,-0.0107,-0.0117,-0.0098,-0.0116,-0.011,-0.0158,-0.0157,-0.0157,-0.0157,0,0.0455,0.0487,0.0542,0.061,0.0684,0.0752,0.0783,0.0822,0.0855,0.0852,0.084,0.0706,0.063,0.0403,0.0254,0.0102,0.0055,-0.0003,-0.0009,-0.0008,0.0045,0.009,0.0069,0,0,0,0,0,0.0472,0.051,0.0574,0.0648,0.0723,0.0768,0.084,0.0864,0.0889,0.0879,0.0862,0.0748,0.0525,0.0431,0.0278,0.0224,0.0021,0.0036,-0.0051,-0.0173,-0.017,-0.0134,0,0,0,0,0,0,0.0482,0.0542,0.0573,0.0668,0.0724,0.0811,0.0858,0.0878,0.087,0.0868,0.0758,0.07,0.0489,0.0616,0.0273,0.0227,0.0146,-0.0065,-0.0069,-0.0175,-0.0172,-0.017,-0.0131,0,0,0,0,0]}]]